Location: Losili
(4.4086°N, 32.7049°E)
Time: 05:32:21
(UTC+00:00)

Cosmos 2297 Rocket - Pass Details

Date: 18 September 2019
Orbit: 841 x 842 km, 71.0° (Epoch: 17 October)

Event Time Altitude Azimuth Distance (km) Brightness Sun altitude
Rises 17:18:23 0° 207° (SSW) 3,391 5.6 -23.5°
Reaches altitude 10° 17:20:54 10° 213° (SSW) 2,455 4.9 -24.1°
Maximum altitude 17:26:17 47° 286° (WNW) 1,095 3.1 -25.5°
Drops below altitude 10° 17:31:41 10° 359° (N) 2,450 4.6 -26.8°
Sets 17:34:12 0° 5° (N) 3,383 5.3 -27.5°
